When you browse on this site, cookies collect data to enhance your experience and personalize the content and advertising you see.
Visit our Privacy Policy to learn more. By continuing to use the site, you agree to this use of cookies and data.

Météo par heure à Boyarskaya

Ce jour, 15 Juillet, Mercredi

Heure Température Précipitation Vent Pression Humidité
00:00 +12°C° 0 mm 2 m/s 746 mmHg 94%
01:00 +12°C° 0 mm 2 m/s 746 mmHg 95%
02:00 +10°C° 0 mm 2 m/s 746 mmHg 95%
03:00 +10°C° 0 mm 2 m/s 746 mmHg 95%
04:00 +12°C° 0 mm 2 m/s 746 mmHg 95%
05:00 +12°C° 0 mm 2 m/s 746 mmHg 96%
06:00 +13°C° 0 mm 2 m/s 746 mmHg 91%
07:00 +15°C° 0 mm 2 m/s 746 mmHg 87%
08:00 +17°C° 0 mm 2 m/s 746 mmHg 82%
09:00 +18°C° 0 mm 3 m/s 746 mmHg 76%
10:00 +19°C° 0 mm 3 m/s 746 mmHg 69%
11:00 +20°C° 0 mm 3 m/s 745 mmHg 62%
12:00 +21°C° 0 mm 3 m/s 745 mmHg 61%
13:00 +21°C° 0 mm 3 m/s 745 mmHg 59%
14:00 +21°C° 0 mm 4 m/s 745 mmHg 58%
15:00 +21°C° 0 mm 3 m/s 745 mmHg 59%
16:00 +21°C° 0 mm 3 m/s 745 mmHg 60%
17:00 +21°C° 0 mm 3 m/s 745 mmHg 61%
18:00 +20°C° 0 mm 2 m/s 745 mmHg 67%
19:00 +18°C° 0 mm 2 m/s 745 mmHg 72%
20:00 +16°C° 0 mm 1 m/s 745 mmHg 77%
21:00 +15°C° 0 mm 1 m/s 745 mmHg 79%
22:00 +14°C° 0 mm 1 m/s 745 mmHg 81%
23:00 +13°C° 0 mm 1 m/s 745 mmHg 82%

Demain, 16 Juillet, Jeudi

Heure Température Précipitation Vent Pression Humidité
00:00 +13°C° 0 mm 1 m/s 745 mmHg 82%
01:00 +12°C° 0 mm 1 m/s 745 mmHg 83%
02:00 +12°C° 0 mm 1 m/s 746 mmHg 83%
03:00 +12°C° 0 mm 1 m/s 745 mmHg 85%
04:00 +12°C° 0 mm 1 m/s 745 mmHg 87%
05:00 +11°C° 0 mm 0 m/s 745 mmHg 88%
06:00 +13°C° 0 mm 0 m/s 745 mmHg 83%
07:00 +16°C° 0 mm 1 m/s 745 mmHg 78%
08:00 +19°C° 0 mm 1 m/s 745 mmHg 73%
09:00 +20°C° 0 mm 1 m/s 745 mmHg 67%
10:00 +22°C° 0 mm 1 m/s 745 mmHg 61%
11:00 +23°C° 0 mm 1 m/s 745 mmHg 55%
12:00 +24°C° 0 mm 1 m/s 745 mmHg 54%
13:00 +24°C° 0 mm 1 m/s 745 mmHg 52%
14:00 +25°C° 0 mm 1 m/s 745 mmHg 50%
15:00 +24°C° 0.1 mm 1 m/s 744 mmHg 52%
16:00 +24°C° 0.1 mm 1 m/s 744 mmHg 54%
17:00 +24°C° 0.1 mm 1 m/s 744 mmHg 55%
18:00 +22°C° 0 mm 1 m/s 744 mmHg 63%
19:00 +20°C° 0 mm 2 m/s 744 mmHg 70%
20:00 +18°C° 0 mm 2 m/s 744 mmHg 77%
21:00 +17°C° 0 mm 2 m/s 745 mmHg 79%
22:00 +16°C° 0 mm 2 m/s 745 mmHg 80%
23:00 +15°C° 0 mm 2 m/s 745 mmHg 81%

Après-demain, 17 Juillet, Vendredi

Heure Température Précipitation Vent Pression Humidité
00:00 +14°C° 0 mm 2 m/s 745 mmHg 82%
01:00 +14°C° 0 mm 2 m/s 745 mmHg 83%
02:00 +14°C° 0 mm 2 m/s 745 mmHg 85%
03:00 +13°C° 0 mm 2 m/s 745 mmHg 85%
04:00 +13°C° 0 mm 2 m/s 745 mmHg 85%
05:00 +13°C° 0 mm 1 m/s 745 mmHg 85%
06:00 +15°C° 0 mm 2 m/s 745 mmHg 81%
07:00 +17°C° 0 mm 2 m/s 746 mmHg 76%
08:00 +19°C° 0 mm 2 m/s 746 mmHg 72%
09:00 +20°C° 0 mm 2 m/s 746 mmHg 67%
10:00 +23°C° 0 mm 2 m/s 746 mmHg 63%
11:00 +24°C° 0 mm 2 m/s 746 mmHg 59%
12:00 +25°C° 0.1 mm 2 m/s 746 mmHg 57%
13:00 +25°C° 0.1 mm 2 m/s 746 mmHg 55%
14:00 +26°C° 0.1 mm 2 m/s 746 mmHg 53%
15:00 +26°C° 0.1 mm 2 m/s 746 mmHg 56%
16:00 +25°C° 0.1 mm 2 m/s 746 mmHg 58%
17:00 +25°C° 0.1 mm 2 m/s 747 mmHg 61%
18:00 +24°C° 0 mm 2 m/s 747 mmHg 66%
19:00 +21°C° 0 mm 2 m/s 747 mmHg 71%
20:00 +19°C° 0 mm 2 m/s 747 mmHg 77%
21:00 +18°C° 0 mm 2 m/s 747 mmHg 79%
22:00 +17°C° 0 mm 2 m/s 747 mmHg 82%
23:00 +16°C° 0 mm 2 m/s 748 mmHg 85%

18 Juillet, Samedi

Heure Température Précipitation Vent Pression Humidité
00:00 +16°C° 0 mm 2 m/s 748 mmHg 85%
01:00 +15°C° 0 mm 2 m/s 748 mmHg 85%
02:00 +15°C° 0 mm 2 m/s 748 mmHg 84%
03:00 +15°C° 0 mm 2 m/s 748 mmHg 86%
04:00 +15°C° 0 mm 2 m/s 748 mmHg 88%
05:00 +15°C° 0 mm 2 m/s 748 mmHg 90%
06:00 +16°C° 0 mm 2 m/s 748 mmHg 87%
07:00 +18°C° 0 mm 2 m/s 749 mmHg 83%
08:00 +20°C° 0 mm 3 m/s 749 mmHg 79%
09:00 +21°C° 0 mm 3 m/s 749 mmHg 73%
10:00 +24°C° 0 mm 3 m/s 749 mmHg 68%
11:00 +25°C° 0 mm 3 m/s 749 mmHg 63%
12:00 +26°C° 0 mm 3 m/s 749 mmHg 61%
13:00 +26°C° 0 mm 3 m/s 749 mmHg 60%
14:00 +27°C° 0 mm 3 m/s 749 mmHg 58%
15:00 +26°C° 0 mm 3 m/s 749 mmHg 60%
16:00 +26°C° 0 mm 3 m/s 748 mmHg 62%
17:00 +26°C° 0 mm 3 m/s 748 mmHg 63%
18:00 +24°C° 0 mm 2 m/s 748 mmHg 69%
19:00 +23°C° 0 mm 2 m/s 748 mmHg 74%
20:00 +20°C° 0 mm 2 m/s 748 mmHg 79%
21:00 +19°C° 0 mm 2 m/s 749 mmHg 81%
22:00 +18°C° 0 mm 2 m/s 749 mmHg 83%
23:00 +17°C° 0 mm 2 m/s 749 mmHg 84%

19 Juillet, Dimanche

Heure Température Précipitation Vent Pression Humidité
00:00 +17°C° 0 mm 2 m/s 749 mmHg 86%
01:00 +16°C° 0 mm 2 m/s 749 mmHg 88%
02:00 +16°C° 0 mm 2 m/s 749 mmHg 89%
03:00 +16°C° 0 mm 2 m/s 749 mmHg 89%
04:00 +16°C° 0 mm 2 m/s 749 mmHg 89%
05:00 +15°C° 0 mm 2 m/s 749 mmHg 89%
06:00 +17°C° 0 mm 2 m/s 749 mmHg 85%
07:00 +19°C° 0 mm 2 m/s 749 mmHg 80%
08:00 +20°C° 0 mm 3 m/s 749 mmHg 76%
09:00 +22°C° 0 mm 3 m/s 749 mmHg 71%
10:00 +24°C° 0 mm 3 m/s 749 mmHg 66%
11:00 +25°C° 0 mm 3 m/s 749 mmHg 61%
12:00 +26°C° 0 mm 3 m/s 748 mmHg 60%
13:00 +26°C° 0 mm 3 m/s 748 mmHg 59%
14:00 +26°C° 0 mm 3 m/s 748 mmHg 58%
15:00 +26°C° 0 mm 3 m/s 748 mmHg 60%
16:00 +26°C° 0 mm 3 m/s 747 mmHg 63%
17:00 +25°C° 0 mm 3 m/s 747 mmHg 65%
18:00 +24°C° 0 mm 3 m/s 747 mmHg 69%
19:00 +23°C° 0 mm 2 m/s 747 mmHg 73%
20:00 +20°C° 0 mm 2 m/s 747 mmHg 77%
21:00 +19°C° 0 mm 2 m/s 747 mmHg 78%
22:00 +19°C° 0 mm 2 m/s 747 mmHg 78%
23:00 +18°C° 0 mm 2 m/s 747 mmHg 78%

20 Juillet, Lundi

Heure Température Précipitation Vent Pression Humidité
00:00 +17°C° 0 mm 2 m/s 747 mmHg 80%
01:00 +17°C° 0 mm 2 m/s 747 mmHg 83%
02:00 +16°C° 0 mm 2 m/s 747 mmHg 85%
03:00 +16°C° 0 mm 2 m/s 746 mmHg 86%
04:00 +16°C° 0 mm 2 m/s 746 mmHg 86%
05:00 +15°C° 0 mm 2 m/s 746 mmHg 87%
06:00 +17°C° 0 mm 2 m/s 746 mmHg 82%
07:00 +19°C° 0 mm 2 m/s 746 mmHg 77%
08:00 +21°C° 0 mm 2 m/s 746 mmHg 72%
09:00 +23°C° 0 mm 2 m/s 746 mmHg 67%
10:00 +24°C° 0 mm 2 m/s 746 mmHg 62%
11:00 +26°C° 0 mm 3 m/s 745 mmHg 57%
12:00 +26°C° 0 mm 3 m/s 745 mmHg 55%
13:00 +27°C° 0 mm 2 m/s 745 mmHg 53%
14:00 +27°C° 0 mm 2 m/s 744 mmHg 51%
15:00 +27°C° 0 mm 2 m/s 744 mmHg 52%
16:00 +27°C° 0 mm 2 m/s 744 mmHg 54%
17:00 +26°C° 0 mm 2 m/s 744 mmHg 56%
18:00 +25°C° 0 mm 1 m/s 744 mmHg 62%
19:00 +23°C° 0 mm 1 m/s 743 mmHg 68%
20:00 +21°C° 0 mm 1 m/s 743 mmHg 74%
21:00 +20°C° 0 mm 1 m/s 743 mmHg 76%
22:00 +17°C° 0 mm 0 m/s 743 mmHg 78%
23:00 +16°C° 0 mm 0 m/s 743 mmHg 80%
Voir plus